Wind_Speed
16 16 16 16 15 15 14 14 13 13 13 13 14 14 13 14 15 16 16 17 18 19 20 20 20 20 20 20 20 21 22 22 23 23 23 23 23 24 24 24 25 25 25 24 23 23 23 24 25 25 25 24 24 25 25 26 25 25 25 26 26 26 25 25 26 26 25 24 22
17 16 16 16 15 15 14 14 14 14 14 14 14 14 14 14 15 16 17 18 18 19 19 20 20 20 20 21 21 22 23 23 23 23 23 23 24 24 25 25 25 25 25 24 23 23 24 24 25 25 24 24 25 26 27 27 26 25 24 25 26 26 26 26 26 26 26 24 23
17 17 16 16 16 15 15 15 15 15 15 15 15 15 15 15 16 17 18 18 18 18 19 19 19 20 20 21 22 22 23 23 23 23 24 24 25 25 25 25 25 25 24 24 23 23 24 24 25 25 24 24 26 27 28 27 26 25 24 25 26 26 26 26 26 26 25 24 23
17 17 17 17 16 16 15 15 15 15 15 15 15 15 15 16 16 17 17 17 17 18 18 19 20 20 21 22 23 23 23 23 23 24 24 25 25 25 26 26 25 25 24 23 23 23 24 24 25 25 25 26 26 27 27 26 26 25 25 26 26 26 26 26 26 26 25 24 24
18 18 17 17 16 15 15 15 15 15 15 15 15 15 16 16 16 16 16 17 17 17 18 19 20 21 22 22 23 23 23 23 24 24 25 25 26 26 26 25 25 24 24 24 24 24 24 24 25 25 25 26 26 26 26 26 26 27 27 27 27 26 26 25 26 26 25 24 25
18 18 17 16 15 15 15 15 15 15 15 15 15 16 15 15 15 15 16 16 17 17 18 19 20 21 21 22 22 23 23 24 25 25 25 26 26 26 26 25 25 24 24 24 24 24 24 25 25 26 26 25 25 25 26 26 27 28 28 29 28 27 27 27 27 27 26 26 26
17 17 17 16 16 15 15 16 16 16 15 15 15 15 15 14 14 15 15 16 17 17 18 19 19 20 21 21 22 23 24 25 25 26 26 26 26 26 26 25 25 25 25 24 24 24 25 25 25 26 25 24 24 25 26 27 28 29 30 30 30 30 29 28 28 27 27 27 27
17 17 17 16 16 16 16 16 16 16 16 15 15 14 14 14 14 15 15 16 16 17 17 18 19 20 21 21 22 23 24 25 26 26 26 26 26 26 25 25 25 25 25 25 25 25 25 26 26 26 26 25 25 26 27 29 30 31 31 32 32 31 31 30 29 28 28 28 28
18 18 17 17 17 17 17 16 16 16 15 15 14 14 14 14 15 15 15 16 16 16 17 18 19 20 21 22 23 24 25 26 26 26 26 26 26 25 25 25 25 25 25 25 25 25 26 26 26 26 26 26 26 28 30 31 32 33 33 32 32 32 32 32 32 31 30 29 29
19 18 18 18 17 17 16 16 15 15 15 14 14 14 14 15 15 15 15 15 16 16 17 18 19 20 21 22 23 24 25 25 26 26 26 26 26 25 25 25 25 25 26 26 26 26 26 26 26 27 27 27 28 30 31 32 32 32 33 32 32 33 35 36 35 33 31 29 28
19 18 18 18 17 16 16 15 15 15 15 15 15 15 15 15 15 15 15 15 16 16 17 18 19 19 20 21 22 23 24 24 25 25 25 26 25 25 25 25 25 25 26 26 26 26 26 26 27 28 29 29 30 31 31 31 31 32 32 33 33 34 36 37 36 34 30 28 28
18 18 17 17 16 16 16 15 15 15 15 15 15 15 15 15 15 15 15 15 16 17 17 17 18 19 20 20 21 22 23 24 24 25 25 25 25 25 25 25 25 25 25 26 25 26 26 26 27 28 29 30 31 31 31 31 31 32 33 33 34 35 35 36 36 34 30 28 27
18 18 18 17 16 16 16 16 15 15 15 15 16 16 15 15 15 15 15 16 16 16 17 17 17 18 19 20 21 22 23 23 24 25 25 25 25 25 25 24 24 25 25 26 26 26 26 27 27 28 29 30 31 31 31 32 32 32 32 33 34 35 36 37 36 34 31 28 27
18 18 18 17 17 16 16 16 16 16 16 16 16 16 16 16 15 15 15 16 16 16 16 16 16 17 18 19 21 22 23 23 24 25 25 25 25 25 25 24 24 24 25 25 26 26 26 27 27 28 29 30 31 32 33 33 32 32 32 33 34 35 36 37 36 34 30 27 26
19 19 19 18 17 17 17 17 16 16 16 16 16 16 16 16 15 15 15 15 15 15 15 16 16 17 18 19 20 22 23 23 24 25 25 25 25 25 25 25 25 25 25 25 26 26 26 27 27 28 29 30 32 33 34 34 34 34 34 34 35 36 37 37 36 34 29 25 25
20 20 19 18 18 18 17 17 16 16 16 16 16 16 16 16 15 15 15 14 14 14 14 15 16 17 18 19 20 21 23 24 24 25 25 25 25 25 25 25 25 26 26 26 26 26 27 27 28 29 30 31 32 33 34 35 35 35 35 35 36 37 38 38 36 32 27 24 23
21 21 20 19 19 18 18 17 17 16 16 17 16 16 16 16 15 14 14 13 13 14 14 15 16 17 19 20 20 21 23 24 24 25 25 25 25 25 26 26 26 26 26 26 27 27 28 29 29 30 30 31 33 34 34 35 35 35 35 36 37 38 39 38 35 30 25 23 23
22 21 20 20 19 18 18 17 17 16 16 16 16 16 15 15 14 14 13 12 12 13 14 15 16 17 19 20 21 22 23 24 25 25 25 25 25 26 26 26 26 26 27 27 28 29 29 30 30 31 31 32 33 33 34 34 34 35 35 37 38 40 40 38 33 28 24 23 23
23 22 21 20 20 19 18 17 16 16 16 16 16 15 15 14 14 13 13 12 12 13 14 16 17 18 19 20 21 22 23 24 25 25 25 25 26 26 26 26 27 27 27 28 29 30 30 31 31 31 32 32 32 33 33 33 34 35 36 37 39 40 40 37 32 27 24 22 20
23 23 22 21 19 18 18 17 16 16 16 16 15 15 15 14 13 13 12 12 12 12 14 15 17 18 19 20 22 23 23 24 25 25 26 26 26 26 26 27 27 28 29 29 30 31 31 32 32 31 31 32 32 33 33 34 35 36 37 38 39 39 38 35 31 26 22 19 17
24 23 22 20 19 18 18 17 16 16 16 16 15 15 14 14 13 12 12 12 12 13 14 15 17 18 20 21 22 23 23 24 25 25 26 26 26 26 27 27 28 29 30 30 31 31 32 32 32 31 31 32 33 34 35 37 38 39 39 40 39 39 37 34 29 24 19 16 16
24 22 21 20 19 18 18 17 17 16 16 16 15 15 14 13 13 12 12 12 12 13 14 16 17 19 20 21 22 23 23 24 24 25 25 26 26 27 27 28 28 29 30 31 31 32 31 31 31 31 31 32 34 36 38 39 39 40 40 40 40 38 35 31 26 21 16 15 15
23 22 21 20 19 18 18 17 17 17 16 16 15 14 14 13 13 12 12 12 13 14 15 16 17 19 20 21 22 22 23 24 25 25 25 26 26 27 28 28 29 30 31 31 31 31 30 30 30 30 32 34 36 38 38 38 37 36 36 36 36 34 30 26 21 17 14 14 16
23 22 21 20 19 19 18 18 17 17 17 16 15 14 13 13 13 12 12 13 13 14 15 16 18 19 20 20 21 22 23 24 25 25 26 26 27 28 28 29 29 30 30 31 30 29 27 27 28 30 32 34 35 35 34 31 28 27 28 29 29 28 26 22 19 15 13 14 16
23 22 21 21 20 20 19 18 18 17 17 16 15 14 14 13 13 13 13 13 14 15 16 17 18 19 19 20 21 21 22 23 24 25 26 27 27 28 28 29 29 30 30 31 29 27 25 26 27 29 32 34 35 34 31 26 23 23 25 26 26 25 24 21 18 15 13 14 16
23 22 22 21 21 20 19 19 18 17 17 16 15 14 14 13 13 13 13 14 15 16 17 18 18 19 19 20 20 21 22 23 24 25 26 27 28 28 29 29 30 30 31 30 28 27 26 27 28 29 31 33 35 33 28 23 23 23 24 25 24 23 22 20 17 15 14 15 16
24 23 23 22 21 21 20 19 18 18 17 16 15 15 14 13 13 13 14 15 16 17 17 18 19 19 19 19 20 21 22 23 24 25 26 27 27 28 29 29 30 31 31 30 28 27 27 28 28 29 31 33 34 32 27 23 23 24 24 23 22 21 19 17 16 15 15 16 16
25 24 23 22 22 21 20 19 19 18 17 16 15 14 14 13 14 14 15 16 16 17 18 18 18 18 18 19 20 21 22 23 24 25 25 26 27 28 29 29 30 31 30 29 28 27 27 28 29 30 31 32 32 29 25 22 22 23 22 22 20 19 17 15 15 15 15 16 16
25 25 24 23 23 22 21 20 19 18 17 16 15 14 14 14 15 15 16 16 17 18 18 18 18 18 19 19 20 21 22 23 23 24 25 26 27 28 28 29 30 31 30 29 28 28 27 28 29 30 31 33 32 27 23 20 21 21 21 20 19 17 16 15 14 14 15 15 16
26 25 24 24 23 22 21 20 19 18 16 15 15 15 15 15 15 16 16 17 17 18 18 18 18 19 19 20 20 21 22 22 23 24 25 26 27 27 28 29 30 31 31 30 29 28 27 28 29 30 32 33 29 24 20 19 19 20 20 20 19 18 16 15 15 15 15 16 16
26 26 25 24 24 23 21 20 18 17 16 16 16 16 16 16 16 16 16 17 17 17 17 18 18 19 19 19 20 21 22 22 23 24 25 25 26 27 28 29 30 30 30 29 28 27 28 28 29 31 33 33 26 20 18 19 19 20 20 21 20 19 17 16 15 16 16 17 17
27 26 25 25 24 23 21 19 18 17 16 16 16 17 17 16 16 16 16 16 17 18 18 18 19 19 19 19 20 21 21 22 23 24 24 25 26 27 28 29 29 30 29 28 27 27 28 29 30 32 33 30 21 17 17 19 20 21 22 23 22 21 18 16 15 15 16 17 18
27 27 26 25 24 22 21 19 18 17 17 17 17 17 17 17 16 16 16 16 17 18 19 19 19 19 19 20 20 21 21 22 23 23 24 24 25 26 27 28 29 29 28 27 27 27 28 29 31 33 32 24 17 16 17 20 22 23 25 25 25 24 21 17 15 15 16 17 18
28 27 27 26 24 22 21 19 18 18 18 18 18 18 17 16 16 16 16 16 17 18 18 19 19 19 19 19 20 21 22 22 23 23 23 24 25 26 27 28 29 28 27 27 27 27 28 29 31 32 28 19 16 16 18 21 23 25 26 28 28 27 25 20 17 15 15 17 18
29 28 27 26 24 23 21 20 19 19 18 18 18 18 17 16 16 16 16 17 17 18 19 19 18 18 19 19 19 20 21 22 22 23 23 24 24 25 26 27 28 27 27 26 26 27 28 29 31 30 24 16 16 17 19 22 24 25 27 28 29 29 27 23 19 16 15 16 17
29 29 28 26 25 23 22 21 20 20 19 19 19 18 17 16 16 16 16 17 18 19 19 19 18 18 19 19 19 20 20 21 22 22 23 23 24 25 26 27 27 26 26 26 26 26 27 29 31 28 21 14 17 19 21 22 23 24 25 26 26 27 27 24 20 17 15 15 16
30 29 28 27 25 24 23 22 21 20 20 20 19 18 17 16 16 16 16 17 18 19 19 18 18 18 19 19 19 20 20 21 21 22 23 23 23 24 25 25 26 26 26 26 25 26 26 28 30 27 19 14 17 20 22 23 23 23 23 23 23 24 24 23 20 18 16 16 16
30 29 28 27 26 25 23 22 22 21 21 20 19 18 16 16 16 16 16 16 18 18 19 18 18 18 18 19 19 20 20 21 21 22 22 23 23 23 23 24 24 25 25 25 25 25 26 27 29 26 19 14 18 21 22 23 23 22 21 20 21 22 23 22 21 19 18 17 17
30 28 27 27 26 25 24 23 22 22 21 19 18 17 16 16 16 16 16 16 17 18 18 19 19 18 18 18 19 20 21 21 21 21 22 22 22 21 21 22 23 23 24 24 24 24 25 25 27 25 20 15 18 21 22 23 23 21 19 18 19 21 23 23 22 21 20 20 20
30 28 27 27 26 25 24 23 23 21 20 19 18 17 16 15 15 15 15 16 17 17 18 19 19 18 18 18 19 20 21 21 21 21 20 20 20 20 20 20 21 22 22 23 23 23 24 25 26 25 20 16 18 21 22 23 22 19 17 16 18 22 24 24 23 22 22 22 22
29 29 28 27 26 25 24 24 22 21 19 18 17 16 15 14 14 15 16 16 17 17 18 18 18 18 18 18 19 20 21 21 21 20 19 19 19 19 18 18 19 20 21 22 23 23 23 24 26 24 20 16 19 21 22 23 21 18 15 15 19 22 24 25 24 24 23 23 23
Wind_Direction
244 247 249 252 255 258 260 263 266 270 273 276 279 281 281 282 282 283 285 287 288 290 293 296 297 299 300 301 302 302 302 302 303 303 303 304 304 305 306 308 309 310 311 310 309 308 308 308 309 310 310 310 310 310 310 310 311 310 309 307 304 303 303 303 303 303 304 304 304
243 246 249 251 254 256 259 261 263 266 270 274 278 280 281 280 280 281 283 284 287 290 293 295 297 299 300 301 301 301 301 302 302 302 302 302 303 304 306 307 309 310 310 309 309 308 307 308 308 308 308 308 309 310 311 312 313 312 311 308 306 304 303 302 301 301 302 302 302
242 245 247 249 251 252 254 256 259 262 267 272 276 277 277 277 277 278 281 284 288 291 293 295 298 299 300 300 301 301 301 301 301 301 301 302 302 304 305 307 308 309 309 309 308 307 307 308 307 306 305 306 307 309 310 312 313 312 310 307 305 304 302 301 300 300 300 300 300
242 243 245 247 248 249 252 255 259 263 267 271 274 274 274 275 276 278 282 286 289 292 294 297 299 300 301 301 301 301 301 300 300 300 300 301 302 303 305 306 307 308 308 308 308 308 308 307 306 304 304 304 306 307 308 309 310 309 307 305 304 303 302 300 299 299 298 297 297
241 242 244 246 247 250 253 256 260 264 268 271 272 272 273 275 277 280 284 288 290 293 297 299 300 300 301 301 301 301 301 300 300 300 300 301 302 303 304 305 306 307 307 308 308 308 308 307 306 304 303 303 304 304 305 306 306 306 305 305 304 303 302 300 300 299 298 296 296
241 242 244 246 248 250 253 256 259 263 266 269 270 271 273 277 280 283 287 289 293 296 298 299 299 300 301 301 301 301 300 300 300 300 300 301 302 303 304 305 305 306 307 307 307 307 307 307 305 303 302 302 301 301 302 303 303 304 304 304 303 303 302 300 300 299 298 296 296
242 243 244 245 247 249 251 254 258 261 264 266 268 271 275 280 284 287 289 292 294 296 297 298 299 300 301 301 301 301 300 300 300 300 301 301 302 303 304 304 305 306 306 306 307 307 307 306 305 303 302 301 299 299 300 301 302 302 302 302 302 302 301 300 299 299 297 297 296
242 242 242 243 245 247 249 253 256 258 261 263 266 271 277 283 286 288 291 292 293 295 297 298 299 300 301 301 301 301 301 301 301 302 302 302 303 303 304 304 305 305 305 306 306 306 306 305 304 302 301 300 298 298 299 301 302 302 301 301 301 301 300 299 298 297 296 296 295
239 239 239 241 243 245 248 251 254 256 259 263 267 273 279 283 286 288 290 291 294 296 297 297 298 299 299 300 300 300 301 302 302 303 303 304 304 304 304 304 304 305 305 305 305 305 305 304 302 301 299 298 297 298 299 301 301 301 300 300 300 300 299 298 297 295 294 294 293
236 236 237 238 241 244 248 251 253 256 260 264 269 274 278 281 284 287 289 292 294 295 295 296 297 297 298 299 300 301 302 303 304 305 305 305 305 304 304 303 303 304 304 304 304 304 304 303 301 300 300 299 298 299 300 300 300 300 299 298 298 298 298 297 296 294 292 291 291
236 235 236 238 241 245 248 250 253 256 259 264 268 272 276 279 282 286 289 292 292 292 292 294 296 297 299 301 302 304 306 307 307 307 307 306 305 304 303 302 302 303 303 303 303 303 302 301 301 300 300 301 300 300 299 299 299 298 297 297 296 296 296 296 295 293 291 289 289
235 236 238 240 243 245 247 249 252 255 258 262 266 271 275 278 282 286 288 288 288 289 292 294 297 299 301 304 307 309 310 310 310 309 308 307 306 305 303 302 302 302 302 302 302 301 301 300 301 301 301 301 301 300 299 298 298 297 296 296 295 295 293 293 293 291 289 287 287
236 237 239 241 242 244 246 248 251 254 257 261 265 270 274 278 281 284 285 285 286 289 293 297 300 303 305 308 310 311 312 312 311 310 309 308 307 306 304 303 303 303 302 301 301 301 301 300 300 300 300 300 300 299 298 298 296 295 293 293 293 292 291 291 290 289 287 285 285
236 238 239 240 241 242 244 246 249 252 256 260 265 269 273 276 279 281 282 284 286 290 295 300 303 307 309 311 312 312 313 312 312 311 310 310 309 308 306 305 305 304 303 302 302 302 301 300 300 299 299 299 299 299 299 297 295 293 291 290 289 289 289 288 288 286 285 283 284
236 237 239 239 239 240 242 245 248 252 255 259 263 267 271 274 277 280 281 283 287 292 297 302 305 309 312 313 312 312 312 312 312 311 311 311 311 310 308 307 306 305 304 304 304 303 301 300 299 299 298 297 298 299 299 298 296 293 291 289 287 286 286 285 285 284 282 281 284
235 236 237 237 237 238 241 244 247 250 254 258 262 266 269 273 276 279 281 284 289 294 299 303 307 310 312 313 313 312 312 312 311 311 311 311 311 311 310 309 307 306 306 306 305 304 302 301 299 298 297 297 298 298 298 297 296 293 291 289 287 286 285 284 284 283 282 282 285
234 234 234 234 235 237 240 243 246 249 253 256 261 265 269 273 276 278 281 284 290 295 300 304 308 310 311 312 313 312 311 311 311 310 310 311 311 312 312 311 310 310 309 308 306 305 304 303 301 300 298 298 298 297 297 296 295 293 291 290 288 288 287 287 286 285 283 284 286
233 233 232 232 234 236 239 242 245 249 252 256 261 265 269 272 275 277 280 285 291 296 300 304 308 309 310 311 312 312 311 310 310 310 311 312 312 313 313 312 312 312 311 309 307 306 304 303 302 301 300 299 298 298 297 295 293 292 291 291 290 290 290 289 288 286 283 283 284
232 231 231 231 233 236 239 242 245 249 253 257 261 265 268 271 274 277 280 285 291 296 300 304 306 308 310 310 311 312 311 310 310 311 312 313 313 313 313 313 313 313 312 310 308 307 306 305 304 303 302 300 299 298 296 294 292 291 291 291 291 291 291 290 288 285 282 280 280
231 230 230 230 232 235 238 242 246 249 254 257 261 264 267 269 272 275 280 286 293 298 300 303 305 307 309 310 311 311 312 312 311 311 312 313 313 313 313 313 313 313 312 310 309 308 307 306 305 304 302 301 299 297 295 293 291 290 290 290 290 290 290 289 287 283 279 277 278
230 230 230 231 232 235 239 242 246 250 253 256 259 262 265 268 270 274 280 287 294 297 299 301 304 306 308 309 310 311 312 313 312 312 312 313 313 313 314 314 313 313 312 311 310 309 308 307 306 304 303 301 299 297 294 292 290 289 288 287 287 287 287 286 284 281 278 277 282
230 229 230 231 232 235 239 242 246 249 252 255 258 261 264 266 270 275 281 288 293 296 298 301 303 305 307 308 309 310 312 313 313 313 313 313 313 314 314 314 314 313 312 311 310 310 309 308 308 306 304 301 299 296 293 290 288 287 286 286 285 284 283 281 281 280 281 284 291
229 229 229 230 232 235 238 241 244 247 250 253 256 259 262 266 271 276 282 287 290 294 297 300 302 304 306 307 308 310 310 311 312 313 313 313 314 314 315 315 314 313 312 311 311 310 310 309 308 307 304 301 298 295 292 290 288 288 289 290 288 285 281 279 280 283 288 293 297
228 228 228 229 231 234 237 240 243 246 249 252 255 258 262 266 271 276 281 286 289 293 296 298 301 303 305 306 308 309 310 310 311 312 313 314 315 315 316 316 315 313 312 312 311 310 309 308 307 306 304 302 299 297 296 296 298 303 306 306 300 292 285 283 284 288 293 298 300
227 227 228 229 230 233 236 239 242 245 248 251 254 258 261 265 270 276 281 285 289 292 294 297 299 301 303 305 307 309 309 310 310 311 312 314 315 316 316 316 315 314 313 313 312 309 307 306 306 307 307 305 303 302 303 309 321 330 331 326 316 305 296 290 289 291 297 301 302
226 227 227 228 230 232 235 238 241 245 248 251 254 256 259 263 269 275 280 284 287 290 292 294 297 300 302 305 307 308 309 309 310 310 311 312 314 315 316 316 315 315 314 314 312 309 308 308 309 309 309 308 307 307 312 323 335 340 338 335 328 318 306 295 291 294 300 302 303
225 226 227 228 230 232 235 238 241 244 247 249 253 256 259 263 268 274 278 282 285 288 290 292 296 299 302 304 306 307 308 309 309 310 310 311 313 314 315 316 316 316 315 314 311 310 310 311 311 311 311 310 310 313 320 331 338 339 338 337 333 325 314 300 294 294 298 302 304
224 225 226 228 230 233 235 238 240 243 246 248 252 255 259 263 267 271 275 279 282 285 288 291 296 299 302 304 305 306 307 308 309 309 310 311 312 314 315 315 316 316 315 313 311 310 311 312 312 312 312 312 314 321 330 337 339 339 338 338 336 331 320 307 299 296 297 300 304
224 225 226 228 230 233 235 237 239 241 245 248 252 255 258 261 265 269 273 276 279 283 286 291 296 300 301 302 304 305 306 307 308 309 310 311 312 313 315 315 316 316 316 314 312 312 312 313 313 313 313 315 319 328 337 342 341 340 340 341 340 336 327 316 306 300 298 300 304
224 225 226 228 230 232 234 235 238 241 244 248 251 254 256 259 262 266 270 274 278 282 287 293 296 298 299 301 303 304 305 306 307 308 309 310 312 313 315 316 317 317 317 316 314 313 314 315 315 314 315 318 324 334 343 345 344 343 343 343 343 339 331 321 312 306 302 301 303
223 225 226 228 230 232 233 235 237 240 243 247 250 252 254 257 259 263 268 273 278 283 288 292 294 296 299 301 303 303 304 305 306 308 309 310 311 313 315 316 317 318 318 317 315 314 315 315 316 315 317 321 329 341 349 349 348 347 346 344 342 339 333 324 317 311 306 304 303
223 224 226 228 230 231 233 234 236 239 243 246 249 251 253 255 258 263 268 273 279 284 287 290 292 295 298 300 302 303 304 305 306 307 309 310 312 313 315 316 317 318 318 317 316 315 316 317 317 317 319 325 336 350 354 353 351 350 348 344 340 336 330 324 319 313 309 306 305
223 224 226 227 229 230 232 233 235 238 242 245 248 250 252 255 259 263 268 273 278 282 285 288 291 294 297 299 301 302 303 305 306 308 309 311 313 314 315 316 316 317 318 317 316 316 317 318 318 319 323 331 347 358 358 356 355 353 350 346 342 336 330 322 318 315 313 311 309
222 223 225 226 228 230 231 233 235 238 241 244 246 248 251 254 258 263 268 273 277 281 284 287 290 293 295 298 300 301 303 305 307 308 310 312 313 314 314 315 316 317 317 316 316 317 318 318 319 322 328 342 359 4 0 358 357 356 354 352 348 341 333 323 316 315 316 316 314
221 222 224 226 227 229 231 232 234 237 239 242 245 247 250 253 257 263 268 274 278 281 283 286 288 291 294 296 298 300 302 305 307 309 311 312 313 314 314 315 316 317 318 317 318 318 319 320 322 325 333 353 7 7 2 0 359 358 357 356 353 348 340 329 319 316 318 320 319
220 221 223 225 226 228 229 231 233 235 238 241 244 246 249 252 257 263 269 273 277 279 281 284 287 290 292 295 297 300 302 305 307 309 311 313 313 314 314 315 316 318 319 320 320 320 320 321 324 328 337 0 10 8 3 1 359 358 358 358 356 354 349 340 330 323 322 323 322
220 221 222 224 225 227 228 230 232 234 237 239 243 246 249 253 257 263 268 272 275 278 281 284 287 289 292 295 298 301 303 306 308 309 311 312 313 314 314 315 316 318 321 322 321 321 322 323 326 330 340 2 10 8 4 1 359 359 358 358 358 357 356 351 345 337 331 327 325
220 220 221 223 225 226 227 229 231 233 236 239 242 246 249 253 257 262 266 270 274 278 281 284 287 289 292 296 299 302 304 306 308 309 311 312 314 314 314 314 315 318 321 323 322 322 323 324 326 331 340 0 8 7 4 2 359 358 357 356 355 356 357 357 354 348 341 335 331
218 219 220 222 224 225 227 228 230 233 236 239 242 245 248 252 256 262 267 271 274 278 281 284 286 289 293 297 300 301 303 305 307 309 311 312 314 315 315 314 315 318 322 324 324 323 324 326 327 330 338 356 7 7 5 2 359 356 354 353 352 353 355 357 356 353 349 344 339
217 217 219 220 223 224 226 228 230 232 235 238 241 244 247 251 257 263 269 273 275 277 280 282 286 290 294 297 299 301 303 305 307 309 311 313 314 314 314 314 316 320 324 327 326 325 325 327 327 329 336 353 5 7 5 2 358 353 351 352 352 353 353 354 354 353 352 349 345
216 216 217 219 221 224 226 228 230 232 234 237 240 243 248 253 259 265 269 271 273 276 278 282 285 289 293 295 297 300 302 304 307 310 312 312 313 313 314 316 319 323 327 329 328 327 326 327 328 329 336 352 4 7 5 2 355 349 347 352 354 354 353 352 352 352 351 349 347
Height
855 855 855 855 855 855 855 854 854 854 853 853 853 852 852 852 851 851 851 851 850 850 849 849 848 848 847 847 847 846 846 846 845 845 844 843 842 841 840 840 839 838 837 836 835 835 834 833 832 831 829 828 827 826 824 823 822 821 820 818 817 816 815 813 811 810 809 808 807
853 853 854 854 854 853 853 853 853 852 852 852 851 851 851 851 850 850 849 849 849 848 848 847 847 846 846 846 846 845 845 844 843 843 842 841 841 840 839 838 837 836 836 835 834 833 832 831 830 829 828 826 825 824 822 821 820 819 818 817 816 815 813 811 810 808 807 806 805
852 852 852 852 852 852 852 851 851 851 851 851 851 850 850 850 849 849 848 848 847 847 846 846 846 845 845 844 844 844 843 843 842 841 841 840 839 838 837 836 836 835 834 833 832 831 831 830 829 828 826 825 824 822 821 819 819 818 817 815 814 813 811 810 808 807 806 804 803
850 851 851 851 851 851 851 851 850 850 850 850 850 849 849 848 848 847 847 846 846 846 845 845 844 844 843 843 842 842 842 841 841 840 839 838 837 836 836 835 834 833 832 832 831 830 829 828 827 826 825 823 822 821 819 818 817 816 815 814 812 811 810 808 806 805 804 803 801
849 849 849 849 849 849 849 849 849 849 849 849 848 848 847 847 847 846 846 845 845 844 844 843 843 842 842 841 841 841 840 840 839 838 837 836 836 835 834 833 832 831 831 830 829 828 828 827 826 825 823 822 821 819 818 817 816 815 813 812 811 809 808 806 805 804 802 801 800
847 848 848 848 848 848 848 848 848 848 848 848 847 847 846 846 846 845 844 844 843 843 843 842 842 841 841 840 840 839 838 838 837 836 836 835 834 833 832 831 831 830 829 828 828 827 826 825 824 823 821 821 819 818 816 816 815 813 811 810 809 807 806 805 803 802 801 799 798
846 846 846 846 847 847 847 847 847 847 846 846 846 845 845 845 844 844 843 842 842 841 841 841 840 840 839 839 838 838 837 836 836 835 834 833 832 831 831 830 829 828 827 827 826 825 825 824 822 821 820 819 817 816 815 814 813 811 810 808 806 805 804 802 801 800 799 797 796
845 845 845 845 845 846 846 846 846 846 845 845 845 844 844 843 843 842 842 841 841 840 840 839 839 838 838 837 837 836 835 835 834 833 832 831 831 830 829 828 827 826 826 825 825 824 823 822 821 820 818 817 816 814 813 812 811 810 808 806 805 803 802 800 799 798 797 796 794
843 843 843 844 844 844 844 844 844 844 844 843 843 843 842 842 841 841 840 840 839 839 838 838 837 837 836 836 835 835 834 833 832 831 831 830 829 828 827 826 826 825 824 823 823 822 821 820 819 818 817 816 814 813 811 811 809 808 806 804 802 801 799 798 797 796 795 793 792
841 841 842 842 842 843 843 843 843 843 842 842 841 841 841 841 840 840 839 838 838 837 837 836 836 836 835 834 834 833 832 831 831 830 829 828 827 826 826 825 824 823 822 822 821 821 820 818 817 816 815 814 812 811 810 808 807 806 804 802 801 799 796 795 794 793 792 791 790
840 840 841 841 841 841 841 841 841 841 841 841 840 840 840 840 839 838 838 837 837 836 836 835 835 834 833 833 832 831 831 830 829 828 827 826 826 825 824 823 822 821 821 820 819 819 818 816 815 814 812 811 810 809 808 806 805 804 802 800 798 796 794 792 791 790 790 789 787
838 839 839 839 840 840 840 840 840 839 839 839 839 839 838 838 838 837 836 836 835 835 834 834 833 833 832 831 831 830 829 828 828 827 826 825 824 823 822 821 821 820 819 818 818 817 816 815 813 812 811 809 808 807 806 804 803 801 800 797 796 794 792 789 788 787 787 786 785
837 837 837 838 838 838 838 838 838 838 838 837 837 837 837 837 836 836 835 835 834 833 833 832 832 831 831 830 829 828 828 827 826 825 824 823 822 821 821 820 819 818 817 817 816 815 814 813 812 810 809 807 806 804 803 802 801 799 797 795 793 791 789 786 785 784 784 784 783
835 836 836 836 836 836 836 836 836 836 836 836 836 836 836 835 835 834 834 833 832 832 831 831 830 830 829 828 828 827 826 826 825 824 823 822 821 820 819 818 817 817 816 815 814 813 812 811 810 808 807 805 803 801 800 799 798 796 794 792 790 788 786 783 781 781 781 781 781
834 834 834 835 835 835 835 835 835 835 835 835 834 834 834 834 833 833 832 831 831 830 830 829 828 828 827 827 826 826 825 824 823 822 821 820 819 818 817 816 816 815 814 813 812 811 810 809 807 806 805 803 801 799 798 796 795 793 791 789 787 784 781 779 778 778 779 779 779
832 832 832 833 833 833 833 833 833 833 833 833 833 833 833 832 832 831 831 830 829 829 828 827 827 826 826 825 825 824 823 822 822 821 820 819 818 817 816 815 814 813 812 811 810 809 808 806 805 804 802 801 799 797 795 793 791 790 788 786 783 781 778 776 776 776 777 777 777
830 830 831 831 831 831 831 831 831 831 831 831 831 831 831 831 831 830 829 829 828 827 826 826 825 825 824 824 823 823 822 821 820 819 818 817 816 815 814 813 812 811 810 809 807 806 805 804 803 802 801 799 797 795 793 791 789 786 784 782 780 777 775 774 775 776 776 776 776
828 828 829 829 829 829 829 829 830 830 830 830 830 830 830 829 829 828 828 827 826 826 825 824 824 823 823 822 821 821 821 820 819 818 817 816 815 814 812 811 810 809 808 807 806 804 803 801 801 799 798 796 795 792 790 788 786 784 781 779 777 775 774 773 774 774 774 774 773
826 826 827 827 827 827 827 828 828 828 828 828 828 828 828 828 827 827 826 826 825 825 824 823 822 822 821 821 820 820 819 818 817 816 815 814 813 812 811 810 808 807 806 805 803 802 801 799 798 797 796 794 792 790 787 785 783 781 779 777 775 773 772 771 771 771 770 770 769
824 824 825 825 825 826 826 826 826 826 826 826 826 826 826 826 826 825 825 824 824 823 822 822 821 820 820 819 819 818 817 816 816 815 813 812 811 810 809 808 807 805 804 803 801 800 798 797 796 795 793 791 789 787 784 782 780 778 776 775 773 772 771 770 769 768 767 767 766
822 822 822 823 823 824 824 824 825 825 825 825 825 825 825 825 824 824 823 823 822 821 821 820 820 819 818 818 817 816 816 815 814 813 812 811 810 809 808 806 805 804 802 801 800 798 796 795 794 792 791 789 786 784 781 779 777 776 774 772 771 769 768 767 766 766 765 765 765
820 820 821 821 822 822 822 823 823 823 823 823 823 823 823 823 823 822 822 821 821 820 820 819 818 818 817 816 816 815 814 813 812 811 811 810 808 807 806 805 804 802 801 799 797 796 795 793 791 790 788 786 784 781 778 776 774 773 771 770 768 767 766 765 764 764 764 765 764
818 819 819 820 820 821 821 821 821 821 821 821 821 821 821 821 821 821 820 820 819 819 818 817 817 816 816 815 814 814 813 812 811 810 809 808 807 806 805 804 802 801 799 797 796 794 793 791 790 788 786 784 781 777 775 773 772 771 770 768 767 766 765 764 763 763 764 764 763
816 817 818 818 819 819 819 819 820 820 820 820 820 820 820 820 819 819 819 818 818 817 816 816 816 815 814 814 813 812 811 810 809 808 807 806 806 805 803 802 801 799 797 796 794 793 792 791 789 787 785 782 779 776 774 773 772 771 770 768 767 765 764 763 763 763 763 763 762
815 816 816 816 817 817 817 817 817 818 818 818 818 818 818 818 818 817 817 816 816 816 815 815 814 814 813 812 811 811 810 809 808 807 806 805 804 803 802 801 799 797 796 794 793 792 792 791 789 786 784 781 778 776 774 773 772 771 770 768 766 765 763 762 762 762 762 762 760
813 814 814 815 815 815 815 816 816 816 816 816 816 816 816 816 816 816 816 815 815 814 814 813 813 812 811 811 810 809 809 808 807 806 805 804 802 801 800 799 797 796 794 793 792 791 790 789 787 785 783 780 777 775 773 772 771 770 769 767 765 764 762 762 762 762 761 760 759
811 812 812 812 813 813 813 814 814 814 814 815 815 815 815 815 815 814 814 813 813 813 812 812 811 811 810 809 809 808 807 806 806 805 804 803 801 800 799 797 796 794 792 791 791 790 789 787 786 784 781 778 776 774 772 771 770 769 767 766 764 762 761 761 760 760 759 758 757
809 810 810 811 811 811 811 812 812 812 812 813 813 813 813 813 813 813 812 812 812 811 811 810 810 809 809 808 807 806 806 805 804 803 802 801 800 799 797 796 794 792 791 790 789 788 787 786 784 782 779 777 775 773 772 771 769 767 766 764 763 761 760 759 758 757 757 756 755
807 808 808 809 809 809 810 810 810 811 811 811 811 811 811 811 811 811 811 811 810 810 809 809 808 808 807 806 806 805 804 804 803 802 801 800 799 798 796 795 793 791 790 789 788 787 786 784 782 780 777 775 774 772 771 770 768 767 765 763 762 760 759 757 757 756 755 754 753
805 806 806 807 807 807 808 808 808 809 809 810 810 810 810 810 810 810 809 809 809 808 808 807 807 806 805 805 804 804 803 802 801 801 800 799 798 796 795 793 791 790 788 787 786 785 784 782 781 778 776 774 773 771 771 769 767 766 764 762 761 759 758 757 756 755 754 753 752
803 804 804 805 805 805 806 806 806 807 807 808 808 808 808 808 808 808 808 807 807 807 806 806 805 805 804 803 803 802 801 801 800 800 799 798 796 795 793 792 790 788 787 786 785 784 783 781 779 777 775 773 772 771 769 768 766 765 763 762 760 759 757 756 755 754 754 753 752
801 801 802 803 803 803 804 804 805 806 806 806 806 806 806 806 806 806 806 806 806 806 805 805 804 803 802 802 801 801 800 800 799 798 797 796 795 794 792 791 789 787 786 784 784 783 781 780 778 776 773 772 771 770 768 767 766 764 763 762 760 758 757 756 755 754 753 752 751
799 800 800 801 801 801 802 803 803 804 804 804 805 805 805 805 805 805 805 805 804 804 804 803 802 801 801 800 800 799 799 798 797 797 796 795 794 793 791 789 787 786 784 783 783 781 780 778 776 774 772 771 770 768 767 766 765 763 762 761 759 758 756 755 754 753 752 751 750
796 797 798 798 799 800 800 801 801 802 802 802 802 803 803 803 803 803 803 803 803 803 802 801 801 800 800 799 798 798 797 796 796 795 795 794 793 791 790 788 786 785 784 783 782 781 779 777 775 773 771 770 768 767 766 765 763 762 761 759 758 757 755 754 753 752 751 751 750
794 795 796 796 797 797 798 799 799 800 800 800 801 801 801 801 801 801 801 801 801 801 801 800 799 799 798 797 797 796 796 795 795 794 793 792 791 790 789 787 785 784 783 782 781 780 778 776 774 772 770 769 767 766 765 764 763 762 760 759 757 756 755 753 752 751 751 750 749
791 792 793 794 795 796 796 797 797 798 798 798 798 799 799 799 800 800 800 800 800 800 799 798 798 797 797 796 796 795 795 794 793 792 792 791 790 789 787 786 784 782 781 781 780 778 777 775 773 771 769 768 767 765 764 763 762 761 759 758 757 756 754 753 752 751 750 749 748
789 790 791 792 792 793 794 795 795 796 796 796 796 797 797 798 798 798 798 799 799 798 797 797 796 796 795 795 794 794 793 793 792 791 790 790 789 788 786 785 783 781 780 779 779 777 776 774 772 770 768 767 766 765 764 762 761 760 759 758 757 756 754 753 751 750 749 748 747
787 788 789 790 790 791 792 792 793 793 793 794 794 795 796 796 796 796 797 797 797 796 796 795 795 794 794 793 792 792 791 791 791 790 789 788 787 786 785 784 782 781 779 778 778 776 775 773 771 770 768 766 765 764 763 762 761 760 758 757 757 755 754 753 751 750 749 748 747
784 786 786 787 788 789 790 790 791 791 791 792 792 793 794 794 795 795 795 796 795 795 794 794 793 793 792 792 791 791 790 790 789 789 788 787 786 786 784 783 781 780 779 778 776 776 774 773 771 769 767 766 764 763 762 761 760 759 758 757 756 755 753 752 751 750 748 747 746
782 783 784 785 786 787 787 788 788 789 789 790 791 791 792 792 793 793 794 794 794 793 793 792 792 791 791 791 790 789 788 788 787 787 786 786 785 784 783 782 781 779 778 777 776 775 773 772 770 768 767 766 764 762 762 761 760 759 758 757 756 754 753 751 750 749 747 746 745
780 781 782 783 784 785 785 786 786 787 788 788 789 789 790 791 791 791 792 792 792 792 791 791 791 790 790 789 789 788 787 786 786 786 785 784 784 783 782 781 780 778 777 776 775 774 772 771 770 768 766 765 763 762 761 761 760 759 757 757 755 754 752 751 749 748 747 746 744